Time,TemperatureF,DewpointF,PressureIn,WindDirection,WindDirectionDegrees,WindSpeedMPH,WindSpeedGustMPH,Humidity,HourlyPrecipIn,Conditions,Clouds,dailyrainin,SolarRadiationWatts/m^2,SoftwareType,DateUTC
2014-02-24 00:02:00,27.0,16.0,-100.00,NW,314,6.0,12.0,64,0.00,,,0.00,0.000000,,2014-02-24 05:02:00,
2014-02-24 00:43:00,25.0,15.0,-100.00,NW,308,7.0,17.0,64,0.00,,,0.00,0.000000,,2014-02-24 05:43:00,
2014-02-24 00:53:00,25.0,15.0,-100.00,NW,308,7.0,17.0,64,0.00,,,0.00,0.000000,,2014-02-24 05:53:00,
2014-02-24 01:02:00,25.0,15.0,-100.00,NW,308,7.0,17.0,64,0.00,,,0.00,0.000000,,2014-02-24 06:02:00,
2014-02-24 01:42:00,22.0,11.0,-100.00,WNW,302,8.0,16.0,63,0.00,,,0.00,0.000000,,2014-02-24 06:42:00,
2014-02-24 01:52:00,22.0,11.0,-100.00,WNW,302,8.0,16.0,63,0.00,,,0.00,0.000000,,2014-02-24 06:52:00,
2014-02-24 02:02:00,22.0,11.0,-100.00,WNW,302,8.0,16.0,63,0.00,,,0.00,0.000000,,2014-02-24 07:02:00,
2014-02-24 02:42:00,20.0,10.0,-100.00,NW,309,7.0,17.0,64,0.00,,,0.00,0.000000,,2014-02-24 07:42:00,
2014-02-24 02:52:00,20.0,10.0,-100.00,NW,309,7.0,17.0,64,0.00,,,0.00,0.000000,,2014-02-24 07:52:00,
2014-02-24 03:02:00,20.0,10.0,-100.00,NW,309,7.0,17.0,64,0.00,,,0.00,0.000000,,2014-02-24 08:02:00,
2014-02-24 03:43:00,20.0,10.0,-100.00,NW,320,8.0,19.0,64,0.00,,,0.00,0.000000,,2014-02-24 08:43:00,
2014-02-24 03:52:00,20.0,10.0,-100.00,NW,320,8.0,19.0,64,0.00,,,0.00,0.000000,,2014-02-24 08:52:00,
2014-02-24 04:02:00,20.0,10.0,-100.00,NW,320,8.0,19.0,64,0.00,,,0.00,0.000000,,2014-02-24 09:02:00,
2014-02-24 04:43:00,19.0,6.0,-100.00,NW,304,7.0,19.0,57,0.00,,,0.00,0.000000,,2014-02-24 09:43:00,
2014-02-24 04:54:00,19.0,6.0,-100.00,NW,304,7.0,19.0,57,0.00,,,0.00,0.000000,,2014-02-24 09:54:00,
2014-02-24 05:03:00,19.0,6.0,-100.00,NW,304,7.0,19.0,57,0.00,,,0.00,0.000000,,2014-02-24 10:03:00,
2014-02-24 05:42:00,18.0,5.0,-100.00,NW,314,6.0,17.0,57,0.00,,,0.00,0.000000,,2014-02-24 10:42:00,
2014-02-24 05:53:00,18.0,5.0,-100.00,NW,314,6.0,17.0,57,0.00,,,0.00,0.000000,,2014-02-24 10:53:00,
2014-02-24 06:02:00,18.0,5.0,-100.00,NW,314,6.0,17.0,57,0.00,,,0.00,0.000000,,2014-02-24 11:02:00,
2014-02-24 06:43:00,17.0,8.0,-100.00,WNW,285,8.0,18.0,66,0.00,,,0.00,0.000000,,2014-02-24 11:43:00,
2014-02-24 06:52:00,17.0,8.0,-100.00,WNW,285,8.0,18.0,66,0.00,,,0.00,0.000000,,2014-02-24 11:52:00,
2014-02-24 07:02:00,17.0,8.0,-100.00,WNW,285,8.0,18.0,66,0.00,,,0.00,0.000000,,2014-02-24 12:02:00,
2014-02-24 07:42:00,17.0,10.0,-100.00,WNW,289,8.0,17.0,75,0.00,,,0.00,2.000000,,2014-02-24 12:42:00,
2014-02-24 07:52:00,17.0,10.0,-100.00,WNW,289,8.0,17.0,75,0.00,,,0.00,2.000000,,2014-02-24 12:52:00,
2014-02-24 08:02:00,17.0,10.0,-100.00,WNW,289,8.0,17.0,75,0.00,,,0.00,2.000000,,2014-02-24 13:02:00,
2014-02-24 08:42:00,19.0,9.0,-100.00,West,275,9.0,21.0,64,0.00,,,0.00,116.000000,,2014-02-24 13:42:00,
2014-02-24 08:52:00,19.0,9.0,-100.00,West,275,9.0,21.0,64,0.00,,,0.00,116.000000,,2014-02-24 13:52:00,
2014-02-24 09:02:00,19.0,9.0,-100.00,West,275,9.0,21.0,64,0.00,,,0.00,116.000000,,2014-02-24 14:02:00,
2014-02-24 09:42:00,19.0,8.0,-100.00,WNW,284,9.0,19.0,61,0.00,,,0.00,216.000000,,2014-02-24 14:42:00,
2014-02-24 09:52:00,19.0,8.0,-100.00,WNW,284,9.0,19.0,61,0.00,,,0.00,216.000000,,2014-02-24 14:52:00,
2014-02-24 10:02:00,19.0,8.0,-100.00,WNW,284,9.0,19.0,61,0.00,,,0.00,216.000000,,2014-02-24 15:02:00,
2014-02-24 10:43:00,21.0,8.0,-100.00,WNW,293,8.0,19.0,56,0.00,,,0.00,243.000000,,2014-02-24 15:43:00,
2014-02-24 10:55:00,21.0,8.0,-100.00,WNW,293,8.0,19.0,56,0.00,,,0.00,243.000000,,2014-02-24 15:55:00,
2014-02-24 11:04:00,21.0,8.0,-100.00,WNW,293,8.0,19.0,56,0.00,,,0.00,243.000000,,2014-02-24 16:04:00,
2014-02-24 11:43:00,21.0,7.0,-100.00,WNW,285,10.0,20.0,54,0.00,,,0.00,275.000000,,2014-02-24 16:43:00,
2014-02-24 11:53:00,21.0,7.0,-100.00,WNW,285,10.0,20.0,54,0.00,,,0.00,275.000000,,2014-02-24 16:53:00,
2014-02-24 12:02:00,21.0,7.0,-100.00,WNW,285,10.0,20.0,54,0.00,,,0.00,275.000000,,2014-02-24 17:02:00,
2014-02-24 12:43:00,21.0,5.0,-100.00,West,275,12.0,23.0,49,0.00,,,0.00,383.000000,,2014-02-24 17:43:00,
2014-02-24 12:52:00,21.0,5.0,-100.00,West,275,12.0,23.0,49,0.00,,,0.00,383.000000,,2014-02-24 17:52:00,
2014-02-24 13:02:00,21.0,5.0,-100.00,West,275,12.0,23.0,49,0.00,,,0.00,383.000000,,2014-02-24 18:02:00,
2014-02-24 13:43:00,23.0,8.0,-100.00,WNW,287,12.0,23.0,53,0.00,,,0.00,442.000000,,2014-02-24 18:43:00,
2014-02-24 13:53:00,23.0,8.0,-100.00,WNW,287,12.0,23.0,53,0.00,,,0.00,442.000000,,2014-02-24 18:53:00,
2014-02-24 14:01:00,23.0,8.0,-100.00,WNW,287,12.0,23.0,53,0.00,,,0.00,442.000000,,2014-02-24 19:01:00,
2014-02-24 14:43:00,23.0,7.0,-100.00,WNW,282,11.0,21.0,49,0.00,,,0.00,370.000000,,2014-02-24 19:43:00,
2014-02-24 14:52:00,23.0,7.0,-100.00,WNW,282,11.0,21.0,49,0.00,,,0.00,370.000000,,2014-02-24 19:52:00,
2014-02-24 15:02:00,23.0,7.0,-100.00,WNW,282,11.0,21.0,49,0.00,,,0.00,370.000000,,2014-02-24 20:02:00,
2014-02-24 15:42:00,22.0,7.0,-100.00,WNW,291,11.0,25.0,51,0.00,,,0.00,271.000000,,2014-02-24 20:42:00,
2014-02-24 15:52:00,22.0,7.0,-100.00,WNW,291,11.0,25.0,51,0.00,,,0.00,271.000000,,2014-02-24 20:52:00,
2014-02-24 16:02:00,22.0,7.0,-100.00,WNW,291,11.0,25.0,51,0.00,,,0.00,271.000000,,2014-02-24 21:02:00,
2014-02-24 16:44:00,21.0,7.0,-100.00,West,276,10.0,21.0,54,0.00,,,0.00,157.000000,,2014-02-24 21:44:00,
2014-02-24 16:53:00,21.0,7.0,-100.00,West,276,10.0,21.0,54,0.00,,,0.00,157.000000,,2014-02-24 21:53:00,
2014-02-24 17:03:00,21.0,7.0,-100.00,West,276,10.0,21.0,54,0.00,,,0.00,157.000000,,2014-02-24 22:03:00,
2014-02-24 17:43:00,20.0,6.0,-100.00,WNW,297,8.0,18.0,55,0.00,,,0.00,83.000000,,2014-02-24 22:43:00,
2014-02-24 17:53:00,20.0,6.0,-100.00,WNW,297,8.0,18.0,55,0.00,,,0.00,83.000000,,2014-02-24 22:53:00,
2014-02-24 18:02:00,20.0,6.0,-100.00,WNW,297,8.0,18.0,55,0.00,,,0.00,83.000000,,2014-02-24 23:02:00,
2014-02-24 18:43:00,19.0,5.0,-100.00,WNW,298,7.0,22.0,53,0.00,,,-99.99,16.000000,,2014-02-24 23:43:00,
2014-02-24 18:53:00,19.0,5.0,-100.00,WNW,298,7.0,22.0,53,0.00,,,-99.99,16.000000,,2014-02-24 23:53:00,
2014-02-24 19:02:00,19.0,5.0,-100.00,WNW,298,7.0,22.0,53,0.00,,,-99.99,16.000000,,2014-02-25 00:02:00,
2014-02-24 19:42:00,18.0,5.0,-100.00,NW,311,6.0,20.0,56,0.00,,,0.00,1.000000,,2014-02-25 00:42:00,
2014-02-24 19:52:00,18.0,5.0,-100.00,NW,311,6.0,20.0,56,0.00,,,0.00,1.000000,,2014-02-25 00:52:00,
2014-02-24 20:02:00,18.0,5.0,-100.00,NW,311,6.0,20.0,56,0.00,,,0.00,1.000000,,2014-02-25 01:02:00,
2014-02-24 20:42:00,18.0,6.0,-100.00,NW,310,7.0,15.0,60,0.00,,,0.00,0.000000,,2014-02-25 01:42:00,
2014-02-24 20:52:00,18.0,6.0,-100.00,NW,310,7.0,15.0,60,0.00,,,0.00,0.000000,,2014-02-25 01:52:00,
2014-02-24 21:02:00,18.0,6.0,-100.00,NW,310,7.0,15.0,60,0.00,,,0.00,0.000000,,2014-02-25 02:02:00,
2014-02-24 21:42:00,16.0,6.0,-100.00,NW,323,5.0,13.0,63,0.00,,,0.00,0.000000,,2014-02-25 02:42:00,
2014-02-24 21:52:00,16.0,6.0,-100.00,NW,323,5.0,13.0,63,0.00,,,0.00,0.000000,,2014-02-25 02:52:00,
2014-02-24 22:02:00,16.0,6.0,-100.00,NW,323,5.0,13.0,63,0.00,,,0.00,0.000000,,2014-02-25 03:02:00,
2014-02-24 22:43:00,15.0,8.0,-100.00,NW,319,6.0,12.0,74,0.00,,,0.00,0.000000,,2014-02-25 03:43:00,
2014-02-24 22:53:00,15.0,8.0,-100.00,NW,319,6.0,12.0,74,0.00,,,0.00,0.000000,,2014-02-25 03:53:00,
2014-02-24 23:03:00,15.0,8.0,-100.00,NW,319,6.0,12.0,74,0.00,,,0.00,0.000000,,2014-02-25 04:03:00,
2014-02-24 23:43:00,14.0,8.0,-100.00,NW,311,4.0,12.0,77,0.00,,,0.00,0.000000,,2014-02-25 04:43:00,
2014-02-24 23:53:00,14.0,8.0,-100.00,NW,311,4.0,12.0,77,0.00,,,0.00,0.000000,,2014-02-25 04:53:00,